Regional Weather Roundup
Issued by NWS Boston, MA

Home | Current Version | Previous Version | Text Only | Print | Product List | Glossary On
Versions: 1 2 3 4 5 6 7 8 9 10 11 12 13 14 15 16 17 18 19 20 21 22 23 24 25 26 27 28 29 30 31 32 33 34 35 36 37 38 39 40 41 42 43 44 45 46 47 48 49 50
000
ASUS41 KBOX 241310
RWRBOX

REGIONAL WEATHER ROUNDUP
NATIONAL WEATHER SERVICE TAUNTON MA
900 AM EDT THU JUL 24 2014

NOTE:  "FAIR" INDICATES FEW OR NO CLOUDS BELOW 12,000 FEET WITH NO
SIGNIFICANT WEATHER AND/OR OBSTRUCTIONS TO VISIBILITY.  THE FOLLOWING
OBSERVATION LOCATIONS DO NOT REPORT PRESENT WEATHER...PROVINCETOWN...
SMITHFIELD...BLOCK ISLAND...KEENE...AND OXFORD.

MAZALL-241400-
EASTERN MASSACHUSETTS

CITY           SKY/WX    TMP DP  RH WIND       PRES   REMARKS
BOSTON         CLOUDY    73  66  78 N9        29.80R
BEVERLY        CLOUDY    71  65  81 N8        29.80R
LAWRENCE       CLOUDY    71  66  84 N8        29.83R
BEDFORD        CLOUDY    71  66  84 N10       29.80R
BLUE HILL        N/A     72  66  81 NW10      29.81R
NORWOOD        PTSUNNY   74  66  76 NW9       29.80R
MARSHFIELD     SUNNY     75  68  78 N7        29.80R
PLYMOUTH       SUNNY     77  66  68 N10       29.79R
TAUNTON        MOSUNNY   78  68  71 N6        29.78R
NEW BEDFORD    MOSUNNY   77  70  79 N8        29.77R
$$

MAZALL-241400-
CAPE COD AND THE ISLANDS

CITY           SKY/WX    TMP DP  RH WIND       PRES   REMARKS
FALMOUTH       MOSUNNY   75  70  83 N12       29.78R
HYANNIS        MOSUNNY   76  69  79 N8        29.76S
CHATHAM        CLOUDY    75  68  78 VRB6      29.78S
PROVINCETOWN   CLOUDY    70  68  94 CALM      29.79R
NANTUCKET      MOSUNNY   72  68  87 SW6       29.78R
MARTHAS VNYRD  MOSUNNY   76  70  82 N7        29.78R
$$

MAZALL-241400-
CENTRAL AND WESTERN MASSACHUSETTS

CITY           SKY/WX    TMP DP  RH WIND       PRES   REMARKS
WORCESTER      PTSUNNY   70  62  76 NW6       29.85R
FITCHBURG      PTSUNNY   75  63  66 N9        29.84R
ORANGE           N/A    N/A N/A N/A MISG      29.86R
SPRINGFIELD    PTSUNNY   71  62  73 N12       29.84S
WESTFIELD      MOSUNNY   72  61  68 N12       29.85R
NORTH ADAMS    MOSUNNY   67  59  75 NW7       29.90S
PITTSFIELD     PTSUNNY   65  59  81 NW7       29.89S
$$

RIZALL-241400-
RHODE ISLAND

CITY           SKY/WX    TMP DP  RH WIND       PRES   REMARKS
PROVIDENCE     PTSUNNY   77  67  71 N9        29.80R
NEWPORT        SUNNY     76  69  79 N9        29.79R
BLOCK ISLAND   SUNNY     73  66  78 NW6       29.81R
SMITHFIELD     PTSUNNY   73  64  73 N8G17     29.83R
WESTERLY       SUNNY     76  66  71 N12       29.80R
$$

CTZALL-241400-
CONNECTICUT

CITY           SKY/WX    TMP DP  RH WIND       PRES   REMARKS
BRADLEY INTL   PTSUNNY   73  63  70 N9        29.84R
HARTFORD       PTSUNNY   72  61  68 N10       29.84R
BRIDGEPORT     CLOUDY    73  63  70 N8G18     29.84R
DANBURY        PTSUNNY   69  61  75 NW7       29.88R
GROTON         SUNNY     74  67  78 N13       29.79S
NEW HAVEN      PTSUNNY   76  63  64 N12G21    29.83R
CHESTER        FAIR      72  64  78 N12G21    29.84R
MERIDEN        MOSUNNY   73  63  70 N6        29.84R
WILLIMANTIC    CLOUDY    73  64  73 N12       29.84R
OXFORD         PTSUNNY   70  61  73 N14       29.88R
$$

MEZ002-015-021-024-NHZ003-005-008-011-012-014-VTZ005-008-241400-
NORTHERN NEW ENGLAND

CITY           SKY/WX    TMP DP  RH WIND       PRES   REMARKS
PORTLAND ME    CLOUDY    67  63  87 N7        29.83R
BANGOR ME      PTSUNNY   62  52  69 N12       29.85R
CONCORD NH     CLOUDY    67  62  84 NW8       29.84R
MANCHESTER NH  CLOUDY    70  64  81 NW8       29.82R
NASHUA NH      PTSUNNY   71  65  81 N10       29.84R
PORTSMOUTH NH  CLOUDY    68  64  88 N10       29.81R
JAFFREY NH     MOSUNNY   67  61  81 NW5       29.87S
KEENE NH       PTSUNNY   68  54  60 N12       29.87R
BURLINGTON VT  MOSUNNY   65  50  58 N9        29.95R
MT. WASHINGTON FOG       43  43 100 N24         N/A  VSB 1/8
$$

NYZ052-076-241400-
EASTERN NEW YORK

CITY           SKY/WX    TMP DP  RH WIND       PRES   REMARKS
ALBANY         PTSUNNY   68  58  70 N10       29.92R
NEW YORK CITY  CLOUDY    74  64  71 N10       29.85R
$$

ANZALL-241400-
MARINE OBSERVATIONS

STATION/POSITION TIME  TEMP    WIND        PRES    VSBY  WAVE
                       AIR SEA DIR/SP/G                  HT/PER
                 (UTC) (F)     (DEG/KT/KT) (MB)    (MI)  (FT/S)
BOSTON BUOY      NOT AVBL
BUZZARDS BAY     NOT AVBL
NANTUCKET SOUND  NOT AVBL
MASS BAY-STELLWA NOT AVBL
ISLE OF SHOALS   NOT AVBL
S OF BLOCK IS    NOT AVBL
$$

......................KEY.........................
  SKY/WX - SKY CONDITION/PRESENT WEATHER
  TMP    - TEMPERATURE IN FAHRENHEIT
  DWPT   - DEWPOINT IN FAHRENHEIT
  RH     - RELATIVE HUMIDITY IN PERCENT
  WIND   - DIRECTION AND SPEED IN MPH
  PRES   - MEAN SEA LEVEL PRESSURE IN INCHES OF HG
  WCI    - WIND CHILL INDEX
  VSB    - VISIBILITY IN MILES
  HX     - HEAT INDEX
  TC     - TEMPERATURE IN CELSIUS
  VRB    - VARIABLE WIND DIRECTION
  N/A    - NOT AVAILABLE


USA.gov is the U.S. government's official web portal to all federal, state and local government web resources and services.